[[{"header":{"parameterUnit":"m.s-1","parameterCategory":1,"la1":30.2991,"la2":30.254,"lo1":-89.0895,"lo2":-89.0444,"dy":0.0017,"dx":0.0017,"nx":28,"ny":28,"refTime":"2024-03-15T03:00:00:Z","depth":0,"parameterNumber":2,"parameterNumberName":"U-component_of_WINDS"},"data":[0,0,0,0,0,0,0,0,0,0,0,0,0,0,0,0,0,0,0,0,0,0,0,0,0,0,0,0,0,0,0,0,0,0,0,0,0,0,0,0,0,0,0,0,0,0,0,0,0,0,0,0,0,0,0,0,0,0,-0.7808,-0.7808,0,-0.7776,-0.7776,-0.7776,-0.7725,-0.7724,-0.7724,-0.7723,-0.7691,-0.7691,-0.7691,0,0,0,0,0,0,0,0,0,0,0,0,0,-0.7826,-0.7826,-0.7808,-0.7808,-0.7808,-0.7777,-0.7776,-0.7776,-0.7726,-0.7724,-0.7723,-0.7722,-0.7691,-0.7691,-0.7691,0,0,0,0,0,0,0,0,0,0,0,0,0,-0.7809,-0.7826,-0.7808,-0.7779,-0.7776,-0.7777,-0.7776,-0.7776,-0.7726,-0.7724,-0.7723,-0.7722,-0.7691,-0.7691,-0.7691,-0.7719,0,0,-0.7691,-0.7691,0,0,0,0,0,0,0,0,-0.781,-0.7808,-0.7784,-0.7781,-0.7778,-0.7753,-0.7771,-0.7757,-0.7726,-0.7745,-0.7723,-0.7721,-0.7713,-0.7711,-0.7708,-0.7717,-0.7716,-0.7691,-0.7691,-0.7691,-0.7691,0,0,0,0,0,0,0,-0.7811,-0.781,-0.7796,-0.7783,-0.778,-0.7767,-0.7763,-0.7768,-0.7737,-0.7743,-0.7739,-0.7736,-0.7711,-0.7708,-0.7707,-0.7715,-0.7691,-0.7691,-0.7691,-0.7691,-0.7744,-0.7746,0,0,0,0,0,0,-0.7817,-0.7811,-0.7797,-0.7795,-0.7791,-0.7768,-0.7764,-0.7763,-0.7737,-0.7732,-0.7737,-0.7734,-0.7709,-0.7707,-0.7706,-0.7736,-0.7691,-0.7691,-0.7691,-0.7743,-0.7745,-0.7746,0,0,0,0,0,0,-0.7817,-0.7816,-0.7798,-0.7802,-0.7799,-0.7769,-0.7769,-0.7763,-0.776,-0.7733,-0.7727,-0.774,-0.7708,-0.7706,-0.7716,-0.7734,-0.7691,-0.7691,-0.7741,-0.7744,-0.7746,-0.7797,0,0,0,0,0,0,-0.7818,-0.7817,-0.7827,-0.7802,-0.7799,-0.7808,-0.777,-0.7763,-0.776,-0.7755,-0.7734,-0.7729,-0.7707,-0.7716,-0.7716,-0.7733,-0.7691,-0.774,-0.7742,-0.7745,-0.7793,-0.78,-0.7806,0,0,0,0,0,-0.7819,-0.7843,-0.7827,-0.7826,-0.7811,-0.781,-0.7807,-0.7781,-0.7762,-0.7771,-0.7754,-0.7729,-0.7732,-0.7717,-0.7717,-0.7735,-0.7738,-0.7742,-0.7745,-0.779,-0.7799,-0.7806,0,0,0,0,0,0,-0.7871,-0.7839,-0.7822,-0.7838,-0.7827,-0.7801,-0.7813,-0.7791,-0.7785,-0.7781,-0.7749,-0.7745,-0.7759,-0.7747,-0.7732,-0.7759,-0.7731,-0.7735,-0.7766,-0.7774,-0.7781,-0.7783,-0.7691,0,0,0,0,0,-0.7884,-0.7885,-0.7858,-0.7875,-0.787,-0.7843,-0.7841,-0.7822,-0.7809,-0.7804,-0.7787,-0.7776,-0.7774,-0.7773,-0.777,-0.7791,-0.7786,-0.7803,-0.781,-0.7815,-0.7819,-0.7828,-0.7836,-0.7757,-0.7757,-0.7757,0,0,-0.7911,-0.7894,-0.7897,-0.7885,-0.7874,-0.7876,-0.7839,-0.7843,-0.7845,-0.7805,-0.7813,-0.78,-0.7785,-0.7801,-0.7807,-0.7792,-0.7839,-0.7819,-0.7824,-0.7824,-0.7832,-0.784,-0.7847,-0.7759,-0.7758,-0.7758,0,0,-0.7963,-0.795,-0.7963,-0.7952,-0.7936,-0.7917,-0.792,-0.7897,-0.7887,-0.7895,-0.7864,-0.7866,-0.7863,-0.7854,-0.7849,-0.7896,-0.7873,-0.7895,-0.793,-0.794,-0.7946,-0.7951,-0.7968,-0.7974,-0.7899,-0.7899,-0.7899,0,-0.7999,-0.8001,-0.7972,-0.7978,-0.7974,-0.7937,-0.7949,-0.7941,-0.7924,-0.7922,-0.7905,-0.7901,-0.7889,-0.7901,-0.7912,-0.791,-0.7912,-0.7898,-0.7947,-0.7953,-0.7957,-0.7973,-0.7979,-0.7902,-0.7901,-0.7901,-0.7901,0,-0.8047,-0.8049,-0.8061,-0.8046,-0.8042,-0.8052,-0.8024,-0.8024,-0.8005,-0.7988,-0.7996,-0.7979,-0.7972,-0.7973,-0.7955,-0.7983,-0.7974,-0.7953,-0.7924,-0.7968,-0.7982,-0.7988,-0.7906,-0.7905,-0.7904,-0.7903,0,0,-0.8131,-0.8098,-0.8103,-0.8095,-0.8074,-0.8075,-0.8083,-0.8075,-0.8076,-0.8065,-0.8071,-0.8069,-0.8049,-0.8043,-0.8023,-0.8032,-0.807,-0.801,-0.8009,-0.8021,-0.81,-0.8116,-0.8123,-0.8055,-0.8056,-0.8056,-0.8101,0,-0.8178,-0.8189,-0.8162,-0.818,-0.8181,-0.8146,-0.8152,-0.814,-0.8124,-0.8123,-0.8106,-0.8105,-0.8079,-0.8075,-0.8082,-0.8064,-0.8085,-0.806,-0.806,-0.806,-0.8065,-0.8131,-0.8148,-0.8191,-0.8106,-0.8107,-0.8108,0,-0.8234,-0.8226,-0.8244,-0.8221,-0.8221,-0.8227,-0.8217,-0.8217,-0.8202,-0.819,-0.8183,-0.8159,-0.8165,-0.8137,-0.8144,-0.8128,-0.8126,-0.8117,-0.8118,-0.8117,-0.8087,-0.8132,-0.8204,-0.8211,-0.8116,-0.8116,-0.8115,0,-0.8293,-0.8287,-0.8297,-0.8291,-0.8265,-0.827,-0.8259,-0.8243,-0.824,-0.8231,-0.8229,-0.8222,-0.8218,-0.8213,-0.8187,-0.8169,-0.8198,-0.8168,-0.8188,-0.8189,-0.8196,-0.8196,-0.8269,-0.8194,-0.8194,-0.8194,-0.8194,0,-0.8349,-0.8361,-0.8323,-0.8329,-0.8341,-0.8311,-0.8324,-0.8309,-0.8295,-0.8298,-0.8267,-0.827,-0.8236,-0.8235,-0.8216,-0.8225,-0.8223,-0.8214,-0.8208,-0.8217,-0.8218,-0.8215,-0.8212,-0.8196,-0.8196,-0.8195,-0.8195,0,-0.8418,-0.8392,-0.84,-0.8374,-0.8368,-0.8378,-0.8356,-0.836,-0.8342,-0.8346,-0.8345,-0.8317,-0.8314,-0.8288,-0.8281,-0.8267,-0.8284,-0.8273,-0.8289,-0.8285,-0.8307,-0.8305,-0.8381,-0.839,-0.831,-0.8311,-0.8311,0,-0.8455,-0.8463,-0.8438,-0.8437,-0.8428,-0.8427,-0.8423,-0.8393,-0.8391,-0.8374,-0.8381,-0.8375,-0.837,-0.8367,-0.8346,-0.834,-0.8328,-0.8355,-0.8327,-0.8335,-0.8329,-0.8329,-0.8329,-0.8362,-0.8363,-0.8363,-0.8364,0,-0.8524,-0.851,-0.8506,-0.8498,-0.8494,-0.8486,-0.8476,-0.8477,-0.8444,-0.8443,-0.844,-0.8435,-0.8427,-0.8422,-0.8412,-0.8401,-0.8377,-0.8373,-0.8377,-0.8386,-0.8395,-0.839,-0.8305,-0.8372,-0.8371,-0.837,-0.837,-0.837,-0.8578,-0.8583,-0.8566,-0.8562,-0.8552,-0.8543,-0.8545,-0.8527,-0.8524,-0.8515,-0.8497,-0.8496,-0.8481,-0.8464,-0.8455,-0.8454,-0.844,-0.8446,-0.8448,-0.845,-0.8455,-0.8395,-0.8452,-0.8452,-0.8452,-0.8451,-0.8451,0,-0.8645,-0.8632,-0.8629,-0.8615,-0.8612,-0.859,-0.8577,-0.8576,-0.8576,-0.8563,-0.8558,-0.8554,-0.8549,-0.8528,-0.852,-0.8524,-0.8513,-0.8523,-0.8522,-0.852,-0.8467,-0.8464,-0.8532,-0.8532,-0.8532,-0.8532,-0.8532,-0.8532,-0.8679,-0.8688,-0.8673,-0.8675,-0.8662,-0.8661,-0.8656,-0.8647,-0.8637,-0.8634,-0.8629,-0.8615,-0.8598,-0.8589,-0.8584,-0.8577,-0.8576,-0.859,-0.858,-0.8532,-0.8524,-0.8516,-0.8513,-0.859,-0.859,-0.8633,-0.8633,-0.8633]},{"header":{"parameterUnit":"m.s-1","parameterCategory":1,"la1":30.2991,"la2":30.254,"lo1":-89.0895,"lo2":-89.0444,"dy":0.0017,"dx":0.0017,"nx":28,"ny":28,"refTime":"2024-03-15T03:00:00:Z","depth":0,"parameterNumber":3,"parameterNumberName":"V-component_of_WINDS"},"data":[0,0,0,0,0,0,0,0,0,0,0,0,0,0,0,0,0,0,0,0,0,0,0,0,0,0,0,0,0,0,0,0,0,0,0,0,0,0,0,0,0,0,0,0,0,0,0,0,0,0,0,0,0,0,0,0,0,0,-1.1093,-1.1093,0,-1.1093,-1.1093,-1.1093,-1.1072,-1.1072,-1.1071,-1.1071,-1.107,-1.107,-1.1071,0,0,0,0,0,0,0,0,0,0,0,0,0,-1.1076,-1.1076,-1.1093,-1.1093,-1.1093,-1.1093,-1.1093,-1.1093,-1.1072,-1.1072,-1.1071,-1.107,-1.107,-1.107,-1.1071,0,0,0,0,0,0,0,0,0,0,0,0,0,-1.108,-1.1077,-1.1093,-1.1083,-1.1082,-1.1093,-1.1093,-1.1093,-1.1072,-1.1072,-1.1071,-1.107,-1.107,-1.107,-1.1071,-1.1092,0,0,-1.1073,-1.1074,0,0,0,0,0,0,0,0,-1.108,-1.1081,-1.1084,-1.1084,-1.1083,-1.1082,-1.1086,-1.1092,-1.1073,-1.1076,-1.107,-1.107,-1.1075,-1.1075,-1.1076,-1.1092,-1.1092,-1.1073,-1.1074,-1.1074,-1.1074,0,0,0,0,0,0,0,-1.108,-1.1081,-1.1093,-1.1084,-1.1083,-1.1078,-1.1078,-1.1087,-1.108,-1.1076,-1.1074,-1.1074,-1.1074,-1.1076,-1.1076,-1.1092,-1.1073,-1.1074,-1.1074,-1.1075,-1.1123,-1.1124,0,0,0,0,0,0,-1.1081,-1.1081,-1.1093,-1.1093,-1.1079,-1.1079,-1.1079,-1.1083,-1.108,-1.1078,-1.1075,-1.1073,-1.1075,-1.1075,-1.1076,-1.11,-1.1074,-1.1075,-1.1075,-1.1122,-1.1123,-1.1124,0,0,0,0,0,0,-1.1081,-1.1082,-1.1093,-1.1086,-1.1087,-1.108,-1.1085,-1.1083,-1.1085,-1.1079,-1.1078,-1.1078,-1.1074,-1.1075,-1.1088,-1.1099,-1.1075,-1.1076,-1.1121,-1.1123,-1.1124,-1.1147,0,0,0,0,0,0,-1.108,-1.1082,-1.109,-1.1087,-1.1088,-1.1105,-1.1086,-1.1084,-1.1086,-1.1084,-1.1082,-1.1081,-1.1074,-1.1087,-1.1089,-1.11,-1.1076,-1.112,-1.1122,-1.1123,-1.1145,-1.1149,-1.1152,0,0,0,0,0,-1.108,-1.1097,-1.1091,-1.1092,-1.1097,-1.1105,-1.1106,-1.1098,-1.1087,-1.1095,-1.1091,-1.1081,-1.1098,-1.1088,-1.109,-1.1102,-1.1119,-1.1121,-1.1123,-1.1144,-1.1148,-1.1152,0,0,0,0,0,0,-1.1101,-1.1096,-1.1089,-1.1106,-1.1106,-1.1102,-1.1111,-1.1103,-1.1106,-1.1104,-1.1094,-1.1093,-1.1107,-1.1106,-1.1095,-1.1121,-1.1107,-1.1109,-1.1122,-1.1126,-1.1129,-1.1129,-1.1077,0,0,0,0,0,-1.1108,-1.1115,-1.111,-1.1125,-1.1126,-1.1119,-1.1122,-1.1115,-1.1115,-1.1115,-1.1113,-1.1113,-1.1118,-1.1122,-1.1127,-1.1145,-1.1144,-1.1154,-1.1157,-1.116,-1.1162,-1.1171,-1.1175,-1.1131,-1.1131,-1.1131,0,0,-1.1122,-1.112,-1.1125,-1.1129,-1.1129,-1.1136,-1.1119,-1.1127,-1.1133,-1.1117,-1.1128,-1.1126,-1.1126,-1.1142,-1.1148,-1.1141,-1.1174,-1.1163,-1.1165,-1.1165,-1.1174,-1.1178,-1.1182,-1.1132,-1.1132,-1.1131,0,0,-1.1151,-1.115,-1.1162,-1.1162,-1.1162,-1.1157,-1.116,-1.1157,-1.1155,-1.1167,-1.1155,-1.1161,-1.1171,-1.1171,-1.1173,-1.1202,-1.1192,-1.1204,-1.1221,-1.123,-1.1234,-1.1237,-1.1247,-1.125,-1.1206,-1.1206,-1.1206,0,-1.1168,-1.1179,-1.117,-1.1179,-1.1181,-1.1167,-1.1179,-1.118,-1.1181,-1.1183,-1.1174,-1.1186,-1.1185,-1.12,-1.1207,-1.1209,-1.1212,-1.1203,-1.1234,-1.1237,-1.124,-1.1249,-1.1253,-1.1207,-1.1207,-1.1207,-1.1207,0,-1.12,-1.1207,-1.1217,-1.1219,-1.1222,-1.1233,-1.1225,-1.1229,-1.1223,-1.1219,-1.1231,-1.1229,-1.1233,-1.1236,-1.123,-1.125,-1.1245,-1.1236,-1.1221,-1.1245,-1.1254,-1.1257,-1.1209,-1.1208,-1.1208,-1.1208,0,0,-1.1242,-1.1238,-1.1242,-1.1242,-1.1241,-1.1246,-1.1257,-1.126,-1.1264,-1.1266,-1.1273,-1.1282,-1.1273,-1.1275,-1.1268,-1.1276,-1.1299,-1.1265,-1.1265,-1.1271,-1.132,-1.1327,-1.1331,-1.1293,-1.1293,-1.1294,-1.132,0,-1.1269,-1.1286,-1.1278,-1.1296,-1.1302,-1.1289,-1.1298,-1.1298,-1.1295,-1.13,-1.1296,-1.1302,-1.129,-1.1291,-1.1298,-1.1294,-1.1308,-1.1292,-1.1299,-1.13,-1.1299,-1.1336,-1.1343,-1.1368,-1.1323,-1.1324,-1.1324,0,-1.1303,-1.1306,-1.1324,-1.1321,-1.1324,-1.1332,-1.1334,-1.134,-1.1339,-1.1336,-1.1338,-1.133,-1.1339,-1.1325,-1.1338,-1.1327,-1.133,-1.1328,-1.1329,-1.1329,-1.1313,-1.1336,-1.1376,-1.1379,-1.133,-1.1329,-1.1329,0,-1.1331,-1.134,-1.1351,-1.1352,-1.1349,-1.1355,-1.1354,-1.1353,-1.1356,-1.1358,-1.136,-1.1364,-1.1366,-1.1369,-1.1361,-1.1352,-1.1375,-1.136,-1.1372,-1.1372,-1.1377,-1.1377,-1.1417,-1.138,-1.138,-1.138,-1.138,0,-1.1362,-1.1374,-1.1364,-1.1371,-1.1383,-1.1374,-1.1387,-1.1385,-1.1384,-1.139,-1.138,-1.1386,-1.1376,-1.1382,-1.1376,-1.1387,-1.1388,-1.1386,-1.1384,-1.1386,-1.1387,-1.1387,-1.1385,-1.1381,-1.1381,-1.1381,-1.138,0,-1.1395,-1.1389,-1.1401,-1.1397,-1.1397,-1.1406,-1.1403,-1.1409,-1.1405,-1.1414,-1.1415,-1.1409,-1.1414,-1.1408,-1.1413,-1.1409,-1.1424,-1.142,-1.1424,-1.1423,-1.1435,-1.1433,-1.1476,-1.1481,-1.1442,-1.1442,-1.1443,0,-1.1415,-1.1423,-1.1421,-1.1424,-1.1424,-1.143,-1.1432,-1.1424,-1.1427,-1.1428,-1.1434,-1.1439,-1.1442,-1.1452,-1.1448,-1.1451,-1.1447,-1.1462,-1.1448,-1.1449,-1.1446,-1.1446,-1.1446,-1.1465,-1.1465,-1.1465,-1.1466,0,-1.1451,-1.1447,-1.1451,-1.1454,-1.1458,-1.146,-1.1461,-1.1465,-1.1456,-1.146,-1.1466,-1.1468,-1.1474,-1.1478,-1.1481,-1.148,-1.1471,-1.1471,-1.1473,-1.1475,-1.1477,-1.1475,-1.1431,-1.1469,-1.1469,-1.1469,-1.1469,-1.1468,-1.1477,-1.1484,-1.1483,-1.1488,-1.1488,-1.1489,-1.1495,-1.1492,-1.1496,-1.15,-1.1495,-1.1502,-1.1501,-1.1504,-1.1504,-1.1509,-1.1503,-1.1507,-1.1508,-1.1509,-1.151,-1.1477,-1.151,-1.151,-1.1509,-1.1509,-1.1509,0,-1.1511,-1.151,-1.1515,-1.1517,-1.1521,-1.1512,-1.1513,-1.1517,-1.1523,-1.1524,-1.1527,-1.1533,-1.1538,-1.1534,-1.1538,-1.1543,-1.1539,-1.1544,-1.1543,-1.1543,-1.1516,-1.1513,-1.1547,-1.1547,-1.1547,-1.1547,-1.1547,-1.1547,-1.1529,-1.154,-1.1537,-1.1547,-1.1546,-1.1552,-1.1554,-1.1555,-1.1555,-1.1562,-1.1566,-1.1564,-1.1562,-1.1566,-1.157,-1.1569,-1.157,-1.1577,-1.1574,-1.1549,-1.1545,-1.1541,-1.1538,-1.1577,-1.1577,-1.16,-1.16,-1.16]}]]